Location: Unspecified
(0.0000°N, 0.0000°E)
Time: 01:58:34
(UTC+00:00)

Courier 1B Rocket - Pass Details

Date: 10 October 2020
Orbit: 920 x 1202 km, 28.2° (Epoch: 25 October)

Event Time Altitude Azimuth Distance (km) Brightness Sun altitude
Rises 18:42:53 0° 214° (SW) 3,957 8.8 -13.9°
Reaches altitude 10° 18:46:47 10° 195° (SSW) 3,045 7.9 -14.9°
Maximum altitude 18:51:34 18° 156° (SSE) 2,561 7.0 -16.1°
Enters shadow 18:55:16 13° 124° (SE) 2,905 7.0 -17.0°
